[[{"header":{"parameterUnit":"m.s-1","parameterCategory":1,"la1":30.2991,"la2":30.254,"lo1":-89.0895,"lo2":-89.0444,"dy":0.0017,"dx":0.0017,"nx":28,"ny":28,"refTime":"2024-11-22T09:00:00:Z","depth":0,"parameterNumber":2,"parameterNumberName":"U-component_of_WINDS"},"data":[0,0,0,0,0,0,0,0,0,0,0,0,0,0,0,0,0,0,0,0,0,0,0,0,0,0,0,0,0,0,0,0,0,0,0,0,0,0,0,0,0,0,0,0,0,0,0,0,0,0,0,0,0,0,0,0,0,0,0.6521,0.6521,0,0.6528,0.6529,0.6529,0.6501,0.65,0.6499,0.6499,0.6505,0.6506,0.6507,0,0,0,0,0,0,0,0,0,0,0,0,0,0.6481,0.6482,0.6521,0.6521,0.6521,0.6528,0.6529,0.6529,0.6501,0.65,0.6499,0.6498,0.6505,0.6506,0.6507,0,0,0,0,0,0,0,0,0,0,0,0,0,0.6495,0.6483,0.6521,0.6508,0.6507,0.6528,0.6529,0.6529,0.6501,0.65,0.6499,0.6498,0.6505,0.6506,0.6507,0.6541,0,0,0.6512,0.6512,0,0,0,0,0,0,0,0,0.6494,0.6496,0.651,0.6509,0.6508,0.6513,0.6517,0.6533,0.6502,0.6504,0.6499,0.6497,0.6509,0.651,0.6514,0.6541,0.6541,0.6512,0.6513,0.6513,0.6514,0,0,0,0,0,0,0,0.6493,0.6496,0.6524,0.651,0.6509,0.6502,0.6502,0.652,0.6513,0.6503,0.6501,0.6503,0.6508,0.6512,0.6514,0.6542,0.6512,0.6513,0.6514,0.6515,0.6595,0.6596,0,0,0,0,0,0,0.6494,0.6495,0.6524,0.6524,0.6498,0.6504,0.6504,0.6512,0.6513,0.6512,0.6504,0.6501,0.6511,0.6512,0.6514,0.6551,0.6513,0.6515,0.6516,0.6593,0.6595,0.6596,0,0,0,0,0,0,0.6493,0.6497,0.6523,0.6509,0.6512,0.6506,0.6515,0.6513,0.6518,0.6513,0.6511,0.651,0.651,0.6512,0.6534,0.6551,0.6515,0.6517,0.6592,0.6594,0.6596,0.6628,0,0,0,0,0,0,0.6492,0.6497,0.651,0.651,0.6513,0.6544,0.6516,0.6514,0.652,0.6517,0.6518,0.6517,0.6509,0.6532,0.6535,0.6553,0.6518,0.659,0.6593,0.6595,0.6625,0.663,0.6635,0,0,0,0,0,0.6491,0.6519,0.6511,0.6514,0.6529,0.6545,0.6547,0.6537,0.6522,0.6534,0.6531,0.6517,0.6549,0.6534,0.6538,0.6556,0.6589,0.6592,0.6595,0.6623,0.6629,0.6635,0,0,0,0,0,0,0.6521,0.6518,0.6509,0.6538,0.6542,0.654,0.6556,0.6545,0.6553,0.6549,0.6537,0.6537,0.6561,0.6561,0.6545,0.6587,0.6566,0.657,0.6586,0.6593,0.6598,0.6596,0.6519,0,0,0,0,0,0.6531,0.6545,0.6542,0.6567,0.6569,0.6563,0.6569,0.6561,0.6565,0.6566,0.6564,0.6568,0.6579,0.6586,0.6596,0.6625,0.6624,0.6639,0.6644,0.6649,0.6651,0.6665,0.6672,0.6606,0.6606,0.6606,0,0,0.6552,0.6552,0.6561,0.6573,0.6575,0.6589,0.6564,0.658,0.6589,0.6568,0.6588,0.6588,0.6591,0.6616,0.6628,0.6617,0.667,0.6652,0.6656,0.6656,0.6669,0.6675,0.6681,0.6608,0.6607,0.6607,0,0,0.6596,0.6598,0.6619,0.6621,0.6625,0.662,0.6625,0.6625,0.6623,0.6643,0.6627,0.6639,0.6658,0.666,0.6664,0.6708,0.6695,0.6712,0.6737,0.6751,0.6756,0.6761,0.6775,0.6781,0.6715,0.6715,0.6715,0,0.6621,0.6641,0.6631,0.6647,0.6652,0.6634,0.6654,0.6657,0.6663,0.6667,0.6655,0.6678,0.6679,0.6704,0.6714,0.6719,0.6723,0.6711,0.6757,0.6761,0.6765,0.6778,0.6784,0.6717,0.6717,0.6717,0.6716,0,0.6671,0.6685,0.6701,0.6707,0.6714,0.6732,0.6724,0.6733,0.6724,0.672,0.674,0.6741,0.675,0.6755,0.6748,0.6779,0.6772,0.6759,0.6737,0.6773,0.6785,0.6791,0.672,0.6719,0.6718,0.6718,0,0,0.6733,0.6733,0.6739,0.6741,0.6743,0.6754,0.6771,0.6779,0.6786,0.6791,0.6804,0.682,0.6808,0.6812,0.6804,0.6817,0.685,0.6802,0.6801,0.6809,0.6882,0.6891,0.6897,0.6842,0.6842,0.6843,0.6882,0,0.6775,0.6804,0.6795,0.6824,0.6836,0.6819,0.6833,0.6836,0.6833,0.6842,0.6839,0.6849,0.6833,0.6835,0.6847,0.6843,0.6864,0.6841,0.6852,0.6853,0.685,0.6904,0.6913,0.695,0.6887,0.6887,0.6888,0,0.6827,0.6834,0.6864,0.6863,0.6868,0.6881,0.6887,0.6897,0.6899,0.6896,0.6901,0.689,0.6906,0.6885,0.6906,0.689,0.6895,0.6894,0.6895,0.6894,0.6871,0.6903,0.6961,0.6966,0.6896,0.6895,0.6895,0,0.6867,0.6884,0.6904,0.6906,0.6906,0.6916,0.6916,0.6917,0.6922,0.6928,0.6931,0.6939,0.6943,0.6949,0.694,0.6926,0.6962,0.6941,0.6958,0.6958,0.6965,0.6965,0.7023,0.6971,0.6971,0.6971,0.6971,0,0.6914,0.6933,0.6922,0.6933,0.6953,0.6943,0.6963,0.6961,0.6962,0.6973,0.6959,0.697,0.6959,0.6968,0.6961,0.6979,0.6981,0.6978,0.6976,0.6978,0.6978,0.698,0.6976,0.6972,0.6972,0.6972,0.6972,0,0.6962,0.6955,0.6975,0.6973,0.6973,0.6988,0.6986,0.6996,0.6992,0.7006,0.7009,0.7002,0.7012,0.7005,0.7015,0.701,0.7033,0.7028,0.7032,0.703,0.7047,0.7045,0.7107,0.7114,0.7059,0.7059,0.706,0,0.6991,0.7004,0.7004,0.701,0.7011,0.7022,0.7027,0.7017,0.7023,0.7026,0.7036,0.7045,0.7051,0.7068,0.7064,0.7071,0.7065,0.7086,0.7066,0.7068,0.7063,0.7062,0.7062,0.709,0.709,0.7091,0.7091,0,0.7043,0.7039,0.7047,0.7053,0.706,0.7065,0.7069,0.7075,0.7065,0.7072,0.7082,0.7087,0.7097,0.7105,0.7111,0.7111,0.7099,0.7098,0.7102,0.7104,0.7105,0.7103,0.7041,0.7096,0.7096,0.7096,0.7095,0.7095,0.708,0.7091,0.7092,0.7101,0.7103,0.7107,0.7116,0.7113,0.7121,0.7128,0.7122,0.7134,0.7135,0.7142,0.7143,0.7151,0.7142,0.7149,0.715,0.7151,0.7153,0.7105,0.7153,0.7153,0.7152,0.7152,0.7152,0,0.713,0.713,0.7138,0.7144,0.7151,0.714,0.7143,0.715,0.716,0.7162,0.7168,0.7179,0.7187,0.7184,0.7191,0.7198,0.7193,0.72,0.7199,0.7199,0.7161,0.7156,0.7204,0.7204,0.7204,0.7204,0.7204,0.7204,0.7156,0.7173,0.717,0.7187,0.7187,0.7198,0.72,0.7203,0.7205,0.7218,0.7224,0.7222,0.7222,0.7228,0.7235,0.7234,0.7236,0.7245,0.7242,0.7207,0.7201,0.7196,0.7192,0.7246,0.7246,0.7278,0.7278,0.7278]},{"header":{"parameterUnit":"m.s-1","parameterCategory":1,"la1":30.2991,"la2":30.254,"lo1":-89.0895,"lo2":-89.0444,"dy":0.0017,"dx":0.0017,"nx":28,"ny":28,"refTime":"2024-11-22T09:00:00:Z","depth":0,"parameterNumber":3,"parameterNumberName":"V-component_of_WINDS"},"data":[0,0,0,0,0,0,0,0,0,0,0,0,0,0,0,0,0,0,0,0,0,0,0,0,0,0,0,0,0,0,0,0,0,0,0,0,0,0,0,0,0,0,0,0,0,0,0,0,0,0,0,0,0,0,0,0,0,0,2.2585,2.2585,0,2.2571,2.2571,2.257,2.2508,2.2507,2.2505,2.2504,2.2488,2.2489,2.249,0,0,0,0,0,0,0,0,0,0,0,0,0,2.2556,2.2557,2.2585,2.2585,2.2585,2.2571,2.2571,2.257,2.2508,2.2507,2.2505,2.2503,2.2488,2.2489,2.249,0,0,0,0,0,0,0,0,0,0,0,0,0,2.2558,2.2557,2.2585,2.2552,2.2549,2.2571,2.257,2.257,2.2509,2.2507,2.2504,2.2502,2.2488,2.2489,2.249,2.2543,0,0,2.2495,2.2495,0,0,0,0,0,0,0,0,2.2558,2.2559,2.2557,2.2554,2.2551,2.2539,2.2554,2.2561,2.2509,2.2524,2.2504,2.2501,2.2507,2.2507,2.2509,2.2542,2.2541,2.2495,2.2496,2.2496,2.2497,0,0,0,0,0,0,0,2.2558,2.2559,2.2579,2.2557,2.2553,2.2537,2.2535,2.2555,2.2528,2.2523,2.2518,2.2517,2.2505,2.2507,2.2508,2.2541,2.2495,2.2496,2.2497,2.2497,2.2613,2.2615,0,0,0,0,0,0,2.2563,2.256,2.258,2.2579,2.2549,2.2539,2.2537,2.2545,2.2527,2.2523,2.2519,2.2514,2.2506,2.2506,2.2507,2.2565,2.2496,2.2498,2.2498,2.2611,2.2613,2.2616,0,0,0,0,0,0,2.2562,2.2565,2.258,2.2568,2.2569,2.2542,2.2552,2.2546,2.2548,2.2525,2.2519,2.2527,2.2504,2.2505,2.2534,2.2563,2.2498,2.25,2.2608,2.2611,2.2615,2.2682,0,0,0,0,0,0,2.2562,2.2565,2.2586,2.2569,2.257,2.2608,2.2554,2.2547,2.2551,2.2545,2.2531,2.2526,2.2503,2.2532,2.2535,2.2564,2.2501,2.2605,2.261,2.2613,2.2677,2.2687,2.2696,0,0,0,0,0,2.2561,2.2606,2.2587,2.259,2.2595,2.261,2.261,2.2582,2.2554,2.2573,2.2558,2.2527,2.256,2.2535,2.2538,2.2568,2.2603,2.2608,2.2613,2.2673,2.2685,2.2696,0,0,0,0,0,0,2.2627,2.2603,2.2582,2.2623,2.2619,2.26,2.2623,2.2597,2.2601,2.2595,2.256,2.2557,2.259,2.2582,2.2555,2.2616,2.2576,2.2582,2.262,2.2632,2.2641,2.2642,2.2502,0,0,0,0,0,2.2646,2.2662,2.2639,2.2678,2.2677,2.2651,2.2656,2.2635,2.2629,2.2627,2.2614,2.2609,2.2618,2.2625,2.2632,2.2676,2.267,2.2697,2.2707,2.2715,2.272,2.274,2.2751,2.2632,2.2632,2.2632,0,0,2.2687,2.2675,2.2687,2.2691,2.2685,2.27,2.265,2.2669,2.2679,2.263,2.2655,2.2645,2.2638,2.2673,2.2688,2.2668,2.2751,2.2721,2.2728,2.2728,2.2746,2.2757,2.2767,2.2636,2.2635,2.2634,0,0,2.2767,2.2761,2.2791,2.2786,2.2777,2.2759,2.2767,2.2751,2.2742,2.2767,2.273,2.2741,2.2758,2.2753,2.2753,2.2829,2.28,2.2832,2.2882,2.2901,2.2911,2.2919,2.2944,2.2953,2.2838,2.2838,2.2838,0,2.2818,2.284,2.2809,2.283,2.2831,2.2787,2.2816,2.2813,2.2808,2.2809,2.2786,2.2804,2.2796,2.2829,2.2847,2.2849,2.2855,2.2834,2.2912,2.292,2.2927,2.295,2.296,2.2842,2.2841,2.2841,2.2841,0,2.2901,2.2917,2.2942,2.2937,2.2941,2.2966,2.2938,2.2946,2.2924,2.2908,2.2933,2.2921,2.2924,2.293,2.2909,2.2959,2.2946,2.2918,2.2877,2.2942,2.2963,2.2972,2.2847,2.2846,2.2845,2.2844,0,0,2.3024,2.3,2.301,2.3006,2.2992,2.3003,2.3025,2.3028,2.3034,2.3032,2.3048,2.3062,2.3035,2.3035,2.3013,2.303,2.3088,2.2999,2.2998,2.3014,2.3139,2.3159,2.317,2.3069,2.307,2.3072,2.3139,0,2.3099,2.3135,2.3107,2.3147,2.316,2.3117,2.3136,2.3129,2.3114,2.3122,2.3105,2.3115,2.308,2.3079,2.3095,2.3078,2.3112,2.3073,2.3082,2.3082,2.3084,2.3182,2.3203,2.3267,2.3147,2.3149,2.315,0,2.3192,2.3192,2.3234,2.3215,2.3219,2.3237,2.3235,2.3244,2.3234,2.3222,2.3221,2.3193,2.3211,2.3172,2.3195,2.3169,2.3171,2.3163,2.3164,2.3163,2.3119,2.3181,2.3287,2.3296,2.3163,2.3162,2.3161,0,2.3274,2.3285,2.331,2.3309,2.3288,2.3301,2.3293,2.3281,2.3284,2.3282,2.3283,2.3284,2.3284,2.3285,2.3258,2.3232,2.3284,2.3243,2.3273,2.3274,2.3285,2.3284,2.3391,2.3289,2.3289,2.3289,2.3289,0,2.336,2.3386,2.3347,2.3362,2.339,2.3357,2.3385,2.3373,2.3362,2.3374,2.3337,2.3349,2.3312,2.332,2.3298,2.332,2.3321,2.331,2.3304,2.3312,2.3313,2.3312,2.3306,2.3292,2.3291,2.3291,2.329,0,2.3456,2.3431,2.3455,2.3434,2.3429,2.345,2.343,2.3443,2.3425,2.344,2.3442,2.3414,2.342,2.3393,2.3395,2.338,2.3411,2.3399,2.3415,2.341,2.3441,2.3438,2.355,2.3562,2.3454,2.3455,2.3456,0,2.3512,2.3531,2.351,2.3515,2.3509,2.3518,2.3519,2.3487,2.349,2.348,2.3493,2.3496,2.3497,2.3508,2.3488,2.3488,2.3474,2.3513,2.3474,2.3481,2.3472,2.347,2.3471,2.3521,2.3522,2.3523,2.3524,0,2.3612,2.3598,2.3602,2.3601,2.3604,2.3602,2.3597,2.3603,2.3568,2.3573,2.3579,2.3579,2.358,2.3583,2.3579,2.3569,2.354,2.3537,2.3543,2.3552,2.3559,2.3553,2.3435,2.3534,2.3533,2.3532,2.3532,2.3531,2.3688,2.3702,2.3689,2.3694,2.3687,2.3683,2.3693,2.3676,2.368,2.3678,2.3659,2.3668,2.3655,2.3646,2.364,2.3645,2.3626,2.3637,2.3639,2.3642,2.3646,2.356,2.3645,2.3644,2.3644,2.3644,2.3643,0,2.3785,2.3774,2.3779,2.3773,2.3776,2.3749,2.3742,2.3746,2.3754,2.3745,2.3746,2.3751,2.3753,2.3732,2.3731,2.3739,2.3725,2.374,2.3738,2.3736,2.3664,2.3657,2.375,2.375,2.375,2.375,2.375,2.375,2.3836,2.3857,2.3841,2.3858,2.3846,2.3855,2.3852,2.3848,2.384,2.3847,2.3849,2.3835,2.382,2.3817,2.3817,2.3811,2.3811,2.383,2.3818,2.3752,2.3741,2.3731,2.3725,2.383,2.3831,2.3889,2.389,2.389]}]]